Weather History for Defiance, OH

Change the Weather History Date:

Wednesday, October 5, 2011

  Actual Average Record
Temperature  
Mean Temperature 62 °F -  
Max Temperature 79 °F 68 °F 92 °F (1951)
Min Temperature 45 °F 43 °F 26 °F (1965)
Degree Days  
Heating Degree Days 3    
Growing Degree Days 12 (Base 50)    
Moisture  
Dew Point 47 °F    
Average Humidity 66    
Maximum Humidity 93    
Minimum Humidity 31    
Precipitation  
Precipitation 0.00 in - - ()
Sea Level Pressure  
Sea Level Pressure 30.27 in    
Wind  
Wind Speed 1 mph (SW)    
Max Wind Speed 5 mph    
Max Gust Speed -    
Visibility 10 miles    
Events      
Averages and records for this station are not official NWS values.
T = Trace of Precipitation, MM = Missing Value Source: NWS Daily Summary

Daily Weather History Graph

Daily Weather History Graph

Search for Another Location

Airport:

Trip Planner

Search our weather history database for the weather conditions in past years. The results will help you decide how hot, cold, wet, or windy it might be!

Date:

Astronomy

Oct. 05, 2011 Rise Set
Actual Time 7:38 AM EDT 7:13 PM EDT
Civil Twilight 7:10 AM EDT 7:40 PM EDT
Nautical Twilight 6:38 AM EDT 8:12 PM EDT
Astronomical Twilight 6:06 AM EDT 8:44 PM EDT
Moon 3:56 PM EDT (10/5) 1:20 AM EDT (10/5)
Length of Visible Light 12h 30m
Length of Day
11h 34m
Waxing Gibbous, 66% of the Moon is Illuminated
Oct 5
Waxing Gibbous
Oct 11
Full
Oct 19
Last Quarter
Oct 26
New
Nov 2
First Quarter

Hourly Weather History & Observations

Time (EDT) Temp. Dew Point Humidity Pressure Visibility Wind Dir Wind Speed Gust Speed Precip Events Conditions
12:53 AM 50.0 °F 46.9 °F 89% 30.26 in 10.0 mi Calm Calm - N/A   Clear
1:53 AM 48.9 °F 46.0 °F 90% 30.25 in 10.0 mi Calm Calm - N/A   Clear
3:53 AM 46.9 °F 45.0 °F 93% 30.26 in 10.0 mi Calm Calm - N/A   Clear
4:53 AM 46.9 °F 43.0 °F 86% 30.27 in 10.0 mi Calm Calm - N/A   Clear
5:53 AM 45.0 °F 42.1 °F 90% 30.28 in 10.0 mi Calm Calm - N/A   Clear
7:53 AM 45.0 °F 43.0 °F 93% 30.30 in 5.0 mi Calm Calm - N/A   Clear
8:53 AM 50.0 °F 46.9 °F 89% 30.31 in 10.0 mi Calm Calm - N/A   Clear
9:53 AM 57.0 °F 50.0 °F 77% 30.32 in 10.0 mi Calm Calm - N/A   Clear
10:53 AM 63.0 °F 50.0 °F 63% 30.31 in 10.0 mi Calm Calm - N/A   Clear
11:53 AM 70.0 °F 48.9 °F 47% 30.30 in 10.0 mi Variable 3.5 mph - N/A   Clear
12:53 PM 72.0 °F 48.0 °F 43% 30.29 in 10.0 mi Calm Calm - N/A   Clear
1:53 PM 75.0 °F 46.9 °F 37% 30.27 in 10.0 mi SSW 4.6 mph - N/A   Clear
2:53 PM 78.1 °F 48.0 °F 35% 30.25 in 10.0 mi Variable 3.5 mph - N/A   Clear
3:53 PM 79.0 °F 46.9 °F 32% 30.23 in 10.0 mi NW 3.5 mph - N/A   Clear
4:53 PM 78.1 °F 45.0 °F 31% 30.22 in 10.0 mi SSW 4.6 mph - N/A   Clear
5:53 PM 78.1 °F 46.0 °F 32% 30.22 in 10.0 mi Calm Calm - N/A   Clear
7:53 PM 62.1 °F 52.0 °F 70% 30.24 in 10.0 mi Calm Calm - N/A   Clear
8:53 PM 59.0 °F 52.0 °F 78% 30.25 in 10.0 mi Calm Calm - N/A   Clear
9:53 PM 60.1 °F 48.9 °F 67% 30.26 in 10.0 mi ENE 4.6 mph - N/A   Clear
10:53 PM 59.0 °F 50.0 °F 72% 30.27 in 10.0 mi Calm Calm - N/A   Clear
11:53 PM 57.9 °F 48.9 °F 72% 30.27 in 10.0 mi Calm Calm - N/A   Clear